sat.trackr.live / text

‹ back to catalog

STARLINK-30086

NORAD 56297 · 2023-056M

PAYLOAD ACTIVE UNKNOWN

§ Identity

Operator
Country
US
Launch date
2023-04-19
Launch site
AFETR
Launch vehicle
Mass (kg)
RCS (m²)

Purposes: comms

External: N2YO · Heavens-Above · Gunter

§ Orbital elements

Epoch: 2026-05-25T00:49:34.496256Z

Period
94.27 min
Inclination
43.0058°
Eccentricity
0.0001265
Mean motion
15.27568118 rev/d
Perigee alt
482.2 km
Apogee alt
484.0 km
Semi-major
6,861.2 km
B*
8.7969e-5
RAAN
137.8775°
Arg perigee
264.1735°
Mean anomaly
95.8973°
Rev number
17,171

§ Raw data

STARLINK-300861 56297U 23056M   26145.03442704  .00002158  00000+0  87969-4 0  99952 56297  43.0058 137.8775 0001265 264.1735  95.8973 15.27568118171713

JSON: /api/v1/satellites/56297 · /tle

For live sub-satellite position, see the globe view (requires WebGL).

§ Visibility from observer

Set your observer location to see the next 7 days of passes ≥ 10°. The values pass through the URL so the page stays shareable.

No JS? Fill the form by hand. The geolocation button needs JavaScript.